PST,Max TemperatureF,Mean TemperatureF,Min TemperatureF,Max Dew PointF,MeanDew PointF,Min DewpointF,Max Humidity, Mean Humidity, Min Humidity, Max Sea Level PressureIn, Mean Sea Level PressureIn, Min Sea Level PressureIn, Max VisibilityMiles, Mean VisibilityMiles, Min VisibilityMiles, Max Wind SpeedMPH, Mean Wind SpeedMPH, Max Gust SpeedMPH,PrecipitationIn, CloudCover, Events, WindDirDegrees
2010-2-1,55,50,44,48,47,45,100,86,72,29.95,29.91,29.87,10,7,0,8,1,10,0.01,6,Fog,346
2010-2-2,58,50,41,49,45,41,100,84,67,29.89,29.85,29.79,10,4,0,9,2,12,T,7,Fog,255
2010-2-3,60,52,44,49,46,44,100,79,57,29.88,29.82,29.78,10,7,1,8,2,12,0.01,6,,180
2010-2-4,55,49,43,52,48,44,100,86,72,29.82,29.71,29.60,10,8,2,25,8,33,1.26,7,Rain,162
2010-2-5,61,53,44,52,48,45,100,82,64,29.89,29.83,29.77,10,5,0,15,4,17,0.01,7,Fog-Rain,159
2010-2-6,58,50,42,51,47,42,100,86,71,29.94,29.82,29.75,10,7,2,16,6,23,1.44,7,Rain,166
2010-2-7,61,48,34,45,39,35,100,77,53,30.02,29.97,29.93,10,6,0,10,2,14,0.00,1,Fog,14
2010-2-8,54,44,34,47,40,34,100,86,71,30.06,29.99,29.87,10,4,0,9,2,12,0.11,6,Fog-Rain,140
2010-2-9,55,46,37,46,43,37,100,83,66,29.99,29.89,29.80,10,7,0,18,4,22,0.28,5,Fog-Rain,82
2010-2-10,57,46,34,47,39,34,100,86,71,30.14,30.03,29.97,10,4,0,8,2,10,T,5,Fog-Rain,248
2010-2-11,58,50,41,50,46,42,100,79,57,30.18,30.13,30.07,10,5,0,13,4,16,0.15,7,Fog-Rain,159
2010-2-12,59,54,49,54,51,48,100,88,75,30.22,30.18,30.14,10,8,2,10,2,13,0.20,8,Rain,155
2010-2-13,61,53,44,51,47,44,100,84,67,30.22,30.18,30.12,10,3,0,8,2,9,0.00,6,Fog,333
2010-2-14,66,54,42,53,47,43,100,82,63,30.23,30.17,30.11,10,4,0,8,2,10,0.00,6,Fog,331
2010-2-15,68,57,45,55,49,45,100,79,58,30.17,30.12,30.03,10,3,0,8,2,22,0.01,4,Fog,184
2010-2-16,71,56,41,55,48,41,100,75,49,30.12,30.06,30.00,10,5,0,9,2,12,0.00,3,Fog,157
2010-2-17,70,55,40,55,47,39,100,77,53,30.05,29.98,29.90,10,4,0,7,1,9,0.00,3,Fog,237
2010-2-18,63,51,39,54,45,39,100,89,78,29.95,29.90,29.84,10,3,0,14,4,16,0.00,5,Fog,156
2010-2-19,52,50,47,48,46,44,100,89,77,29.87,29.85,29.82,10,10,7,7,2,8,0.00,8,,21
2010-2-20,54,47,39,47,43,39,100,83,66,29.89,29.86,29.83,10,5,0,12,3,15,0.01,6,Fog,293
2010-2-21,54,48,42,48,45,40,100,83,66,30.04,29.96,29.88,10,9,0,9,2,13,0.06,7,Fog-Rain,226
2010-2-22,62,49,36,46,40,34,100,67,34,30.18,30.11,30.04,10,5,0,10,3,13,0.00,5,Fog,349
2010-2-23,50,47,43,50,46,42,100,93,86,30.19,30.08,29.99,10,5,2,15,3,22,2.01,7,Rain,127
2010-2-24,64,54,43,53,49,45,100,83,65,30.19,30.07,29.99,10,5,0,17,3,21,0.13,6,Fog-Rain,31
2010-2-25,61,52,43,51,47,43,100,82,64,30.24,30.18,30.05,10,4,0,9,3,14,0.01,8,Fog,341
2010-2-26,56,49,42,54,49,42,100,89,77,30.04,29.79,29.67,10,8,2,25,7,35,0.67,6,Rain,159
2010-2-27,61,52,42,49,45,42,100,78,55,29.85,29.72,29.58,10,7,1,12,3,16,0.22,3,Rain,331
2010-2-28,64,50,36,51,42,36,100,80,60,30.04,29.91,29.83,10,5,0,12,3,14,0.00,2,Fog,178